KF5JED-13 Weather Reports


time (UTC)temp
F
wind
direction
speed
knots
gust
knots
rain 1hr
in
rain 24hr
in
rain mn
in
humidity
%
barometer
mb
20260508053746 56 178 5.2 7.0 0.00 0.00 0.00 49 1014.0
20260508053243 57 170 7.8 8.7 0.00 0.00 0.00 48 1014.1
20260508052740 57 188 7.0 9.6 0.00 0.00 0.00 47 1013.8
20260508052238 58 178 7.0 9.6 0.00 0.00 0.00 47 1013.9
20260508051733 58 189 5.2 7.8 0.00 0.00 0.00 46 1014.1
20260508051229 59 173 7.0 9.6 0.00 0.00 0.00 45 1014.1
20260508050726 59 172 5.2 9.6 0.00 0.00 0.00 45 1014.3
20260508050223 60 183 7.0 9.6 0.00 0.00 0.00 44 1014.2
20260508045718 60 176 7.0 9.6 0.00 0.00 0.00 44 1014.0
20260508045217 60 179 7.8 9.6 0.00 0.00 0.00 43 1014.1
20260508044714 60 171 7.8 8.7 0.00 0.00 0.00 43 1014.2
20260508044210 60 168 7.8 11.3 0.00 0.00 0.00 43 1014.2
20260508043706 60 165 7.8 7.8 0.00 0.00 0.00 43 1014.2
20260508043204 60 171 7.0 9.6 0.00 0.00 0.00 42 1014.5
20260508042700 60 155 6.1 7.8 0.00 0.00 0.00 42 1014.2
20260508042158 60 166 5.2 7.8 0.00 0.00 0.00 42 1014.2
20260508041654 60 161 6.1 8.7 0.00 0.00 0.00 41 1014.3
20260508041151 61 153 7.0 8.7 0.00 0.00 0.00 41 1014.2
20260508040647 61 160 7.8 7.8 0.00 0.00 0.00 40 1014.1
20260508040145 61 167 7.0 8.7 0.00 0.00 0.00 40 1014.2
20260508035642 61 166 6.1 8.7 0.00 0.00 0.00 40 1014.2
20260508035140 61 162 6.1 7.8 0.00 0.00 0.00 40 1014.2
20260508034636 61 173 5.2 7.8 0.00 0.00 0.00 40 1014.2
20260508034133 62 159 6.1 10.4 0.00 0.00 0.00 38 1014.0
20260508033630 63 155 9.6 11.3 0.00 0.00 0.00 38 1014.0
20260508033129 63 152 6.1 9.6 0.00 0.00 0.00 38 1014.2
20260508032625 63 154 7.8 9.6 0.00 0.00 0.00 38 1014.1
20260508032122 63 155 7.0 9.6 0.00 0.00 0.00 38 1014.1
20260508031619 63 162 7.0 8.7 0.00 0.00 0.00 37 1014.1
20260508031116 63 160 6.1 9.6 0.00 0.00 0.00 36 1013.8
20260508030612 63 150 6.1 9.6 0.00 0.00 0.00 36 1013.9
20260508030110 63 154 7.0 9.6 0.00 0.00 0.00 36 1013.9
20260508025606 62 156 5.2 7.0 0.00 0.00 0.00 37 1013.8
20260508025103 62 159 5.2 7.8 0.00 0.00 0.00 36 1013.9
20260508024559 62 153 7.0 7.8 0.00 0.00 0.00 35 1013.9
20260508024056 63 167 5.2 7.8 0.00 0.00 0.00 34 1013.6
20260508023552 64 164 5.2 9.6 0.00 0.00 0.00 33 1013.8
20260508023050 61 154 5.2 5.2 0.00 0.00 0.00 35 1013.6
20260508022546 63 151 5.2 6.1 0.00 0.00 0.00 33 1013.5
20260508022043 63 148 5.2 6.1 0.00 0.00 0.00 33 1013.7
20260508021539 61 154 4.3 5.2 0.00 0.00 0.00 34 1013.6
20260508021034 62 153 3.5 4.3 0.00 0.00 0.00 32 1013.5
20260508020532 64 156 1.7 3.5 0.00 0.00 0.00 31 1013.3
20260508020030 64 150 2.6 3.5 0.00 0.00 0.00 31 1013.6
20260508015527 63 156 2.6 3.5 0.00 0.00 0.00 31 1013.5
20260508015024 65 158 3.5 3.5 0.00 0.00 0.00 30 1013.5
20260508014521 67 148 3.5 5.2 0.00 0.00 0.00 28 1013.5
20260508014017 66 139 3.5 3.5 0.00 0.00 0.00 29 1013.2
20260508013513 68 178 2.6 3.5 0.00 0.00 0.00 29 1013.1
20260508013010 70 193 3.5 5.2 0.00 0.00 0.00 27 1013.2
20260508012507 71 200 3.5 7.8 0.00 0.00 0.00 27 1013.2
20260508012004 71 212 4.3 7.8 0.00 0.00 0.00 26 1013.1
20260508011503 72 209 6.1 7.8 0.00 0.00 0.00 26 1013.0
20260508010959 73 211 7.0 9.6 0.00 0.00 0.00 26 1013.3
20260508010451 73 211 8.7 14.8 0.00 0.00 0.00 25 1013.1
20260508005948 73 194 12.2 13.0 0.00 0.00 0.00 25 1013.2
20260508005445 74 206 10.4 13.9 0.00 0.00 0.00 25 1013.1
20260508004941 74 218 6.1 9.6 0.00 0.00 0.00 25 1013.1
20260508004437 74 229 6.1 9.6 0.00 0.00 0.00 25 1013.1
20260508003934 74 219 7.0 12.2 0.00 0.00 0.00 25 1013.1
20260508003431 75 199 12.2 15.6 0.00 0.00 0.00 24 1013.1
20260508002928 75 207 9.6 11.3 0.00 0.00 0.00 24 1013.1
20260508002425 75 223 5.2 13.0 0.00 0.00 0.00 25 1013.1
20260508001921 75 197 7.0 16.5 0.00 0.00 0.00 25 1013.1
20260508001417 75 213 7.8 13.0 0.00 0.00 0.00 25 1013.0
20260508000914 75 274 2.6 12.2 0.00 0.00 0.00 25 1013.0
20260508000412 76 212 5.2 7.8 0.00 0.00 0.00 24 1013.1
20260507235907 76 225 9.6 13.9 0.00 0.00 0.00 23 1013.1
20260507235404 75 199 5.2 14.8 0.00 0.00 0.00 24 1013.3
20260507234901 76 214 6.1 10.4 0.00 0.00 0.00 24 1013.0
20260507234359 76 235 3.5 9.6 0.00 0.00 0.00 24 1013.0
20260507233854 76 212 7.8 9.6 0.00 0.00 0.00 23 1012.9
20260507233351 76 218 11.3 17.4 0.00 0.00 0.00 23 1013.0
20260507232849 76 205 11.3 13.0 0.00 0.00 0.00 23 1012.9
20260507232345 76 213 13.0 14.8 0.00 0.00 0.00 23 1013.1
20260507231843 76 205 9.6 12.2 0.00 0.00 0.00 23 1013.2
20260507231340 77 287 1.7 5.2 0.00 0.00 0.00 24 1013.2
20260507230836 77 210 7.0 7.0 0.00 0.00 0.00 23 1013.2
20260507230333 76 235 9.6 12.2 0.00 0.00 0.00 23 1013.3
20260507225833 75 223 8.7 18.2 0.00 0.00 0.00 24 1013.3
20260507225329 76 223 7.8 7.8 0.00 0.00 0.00 24 1013.5
20260507224826 76 277 3.5 9.6 0.00 0.00 0.00 25 1013.5
20260507224323 76 275 3.5 7.8 0.00 0.00 0.00 23 1013.5
20260507223819 76 314 1.7 10.4 0.00 0.00 0.00 24 1013.5
20260507223315 76 255 6.1 9.6 0.00 0.00 0.00 24 1013.7
20260507222812 76 284 1.7 10.4 0.00 0.00 0.00 24 1013.6
20260507222308 76 241 2.6 7.8 0.00 0.00 0.00 24 1013.7
20260507221806 76 240 6.1 12.2 0.00 0.00 0.00 24 1013.7
20260507221302 75 315 2.6 6.1 0.00 0.00 0.00 24 1013.8
20260507220758 75 231 11.3 13.9 0.00 0.00 0.00 25 1013.8
20260507220257 75 212 9.6 13.0 0.00 0.00 0.00 25 1013.7
20260507215752 75 225 1.7 6.1 0.00 0.00 0.00 25 1013.8
20260507215250 75 221 7.8 12.2 0.00 0.00 0.00 25 1014.1
20260507214747 74 207 12.2 18.2 0.00 0.00 0.00 25 1014.2
20260507214244 74 253 3.5 7.0 0.00 0.00 0.00 26 1014.3
20260507213739 74 195 3.5 16.5 0.00 0.00 0.00 26 1014.5
20260507213237 73 223 10.4 16.5 0.00 0.00 0.00 26 1014.3
20260507212733 74 227 9.6 15.6 0.00 0.00 0.00 25 1014.7
20260507212230 73 221 12.2 16.5 0.00 0.00 0.00 24 1014.6
20260507211726 74 294 2.6 7.0 0.00 0.00 0.00 25 1014.7
20260507211222 73 232 4.3 10.4 0.00 0.00 0.00 26 1014.8
20260507210720 73 208 7.8 13.0 0.00 0.00 0.00 24 1015.0
20260507210216 73 286 5.2 14.8 0.00 0.00 0.00 26 1014.7
20260507205713 72 259 7.0 10.4 0.00 0.00 0.00 27 1015.0
20260507205209 72 216 5.2 13.0 0.00 0.00 0.00 27 1015.0
20260507204706 73 212 9.6 13.0 0.00 0.00 0.00 26 1015.1
20260507204204 72 231 4.3 6.1 0.00 0.00 0.00 28 1015.2
20260507203702 72 228 7.8 13.0 0.00 0.00 0.00 27 1015.7
20260507203159 72 190 8.7 10.4 0.00 0.00 0.00 29 1015.5
20260507202654 72 293 4.3 14.8 0.00 0.00 0.00 31 1015.7
20260507202150 71 321 3.5 13.0 0.00 0.00 0.00 29 1015.9
20260507201645 72 243 8.7 13.0 0.00 0.00 0.00 29 1015.8
20260507201143 71 175 5.2 11.3 0.00 0.00 0.00 32 1015.9
20260507200639 72 208 13.0 13.0 0.00 0.00 0.00 30 1016.0
20260507200135 71 170 5.2 13.0 0.00 0.00 0.00 31 1016.2
20260507195632 69 257 5.2 13.0 0.00 0.00 0.00 33 1016.3
20260507195129 70 217 4.3 5.2 0.00 0.00 0.00 32 1016.2
20260507194626 71 221 7.8 13.0 0.00 0.00 0.00 32 1016.7
20260507194121 69 192 3.5 12.2 0.00 0.00 0.00 33 1016.7
20260507193618 70 219 12.2 15.6 0.00 0.00 0.00 32 1016.9
20260507193115 69 232 1.7 7.8 0.00 0.00 0.00 35 1016.7
20260507192612 69 203 10.4 13.0 0.00 0.00 0.00 34 1017.0
20260507192109 69 233 8.7 10.4 0.00 0.00 0.00 35 1016.9
20260507191604 68 239 7.0 18.2 0.00 0.00 0.00 38 1017.0
20260507191101 68 297 4.3 7.0 0.00 0.00 0.00 37 1017.2
20260507190558 68 223 9.6 13.0 0.00 0.00 0.00 37 1017.2
20260507190057 68 215 4.3 12.2 0.00 0.00 0.00 39 1017.3
20260507185555 67 305 2.6 9.6 0.00 0.00 0.00 40 1017.2
20260507185051 66 287 6.1 9.6 0.00 0.00 0.00 42 1017.6
20260507184550 68 249 4.3 8.7 0.00 0.00 0.00 41 1017.6
20260507184047 67 298 4.3 16.5 0.00 0.00 0.00 40 1017.7
20260507183543 67 207 10.4 15.6 0.00 0.00 0.00 40 1017.8
20260507183040 66 241 3.5 9.6 0.00 0.00 0.00 42 1018.1
20260507182536 64 227 7.0 20.0 0.00 0.00 0.00 45 1018.1
20260507182032 65 237 4.3 12.2 0.00 0.00 0.00 44 1018.2
20260507181530 65 208 12.2 17.4 0.00 0.00 0.00 43 1018.4
20260507181026 64 228 3.5 14.8 0.00 0.00 0.00 45 1018.5
20260507180522 65 226 13.0 15.6 0.00 0.00 0.00 45 1018.6
20260507180019 64 319 3.5 8.7 0.00 0.00 0.00 46 1018.7
20260507175515 64 217 6.1 13.9 0.00 0.00 0.00 45 1018.7
20260507175013 64 227 10.4 13.0 0.00 0.00 0.00 46 1018.9
20260507174510 63 233 7.8 17.4 0.00 0.00 0.00 47 1018.8
20260507174008 62 233 11.3 14.8 0.00 0.00 0.00 48 1019.1
20260507173504 62 220 12.2 16.5 0.00 0.00 0.00 49 1019.1
20260507173002 62 300 5.2 11.3 0.00 0.00 0.00 50 1019.5
20260507172458 62 237 3.5 9.6 0.00 0.00 0.00 49 1019.2
20260507171954 61 250 5.2 13.0 0.00 0.00 0.00 51 1019.5
20260507171450 61 249 1.7 9.6 0.00 0.00 0.00 52 1019.5
20260507170948 60 228 10.4 12.2 0.00 0.00 0.00 52 1019.5
20260507170444 59 220 8.7 18.2 0.00 0.00 0.00 52 1019.6
20260507165940 60 203 7.0 13.0 0.00 0.00 0.00 52 1019.7
20260507165437 59 271 1.7 12.2 0.00 0.00 0.00 53 1019.8
20260507164932 59 231 5.2 13.0 0.00 0.00 0.00 54 1019.8
20260507164430 59 223 12.2 14.8 0.00 0.00 0.00 53 1019.8
20260507163926 57 206 4.3 18.2 0.00 0.00 0.00 56 1019.9
20260507163424 59 204 15.6 20.0 0.00 0.00 0.00 54 1019.9
20260507162921 58 226 13.0 13.0 0.00 0.00 0.00 54 1020.1
20260507162416 59 239 6.1 12.2 0.00 0.00 0.00 54 1020.1
20260507161914 57 202 7.8 13.0 0.00 0.00 0.00 57 1020.2
20260507161409 56 209 9.6 12.2 0.00 0.00 0.00 57 1020.0
20260507160906 57 209 8.7 16.5 0.00 0.00 0.00 55 1020.0
20260507160402 56 228 8.7 14.8 0.00 0.00 0.00 58 1020.2
20260507155858 56 227 9.6 11.3 0.00 0.00 0.00 59 1020.2
20260507155354 54 274 4.3 9.6 0.00 0.00 0.00 64 1020.2
20260507154851 54 238 9.6 13.0 0.00 0.00 0.00 64 1020.4
20260507154348 53 238 4.3 10.4 0.00 0.00 0.00 65 1020.4
20260507153932 53 199 11.3 16.5 0.00 0.00 0.00 64 1020.2
20260507153846 53 199 11.3 16.5 0.00 0.00 0.00 64 1020.2
20260507153342 53 208 7.0 13.0 0.00 0.00 0.00 66 1020.4
20260507153139 52 223 3.5 7.0 0.00 0.00 0.00 68 1020.5
20260507152838 52 223 3.5 7.0 0.00 0.00 0.00 68 1020.5
20260507152334 52 229 6.1 9.6 0.00 0.00 0.00 68 1020.5
20260507152240 53 210 3.5 6.1 0.00 0.00 0.00 69 1020.6
20260507151831 53 210 3.5 6.1 0.00 0.00 0.00 69 1020.6
20260507151327 51 189 1.7 6.1 0.00 0.00 0.00 72 1020.8
20260507150825 51 308 0.9 9.6 0.00 0.00 0.00 74 1020.5
20260507150321 50 239 2.6 6.1 0.00 0.00 0.00 75 1020.7
20260507145817 50 224 4.3 4.3 0.00 0.00 0.00 76 1020.7
20260507145313 48 204 2.6 9.6 0.00 0.00 0.00 78 1020.8
20260507144811 48 223 9.6 11.3 0.00 0.00 0.00 80 1020.8
20260507144308 48 229 3.5 6.1 0.00 0.00 0.00 81 1020.8
20260507143804 47 331 4.3 9.6 0.00 0.00 0.00 84 1020.8
20260507143302 47 314 3.5 7.0 0.00 0.00 0.00 85 1021.0
20260507142758 46 314 3.5 6.1 0.00 0.00 0.00 86 1021.0
20260507142254 45 216 7.8 8.7 0.00 0.00 0.00 88 1020.9
20260507141751 45 292 5.2 7.8 0.00 0.00 0.00 89 1021.2
20260507141248 44 224 3.5 10.4 0.00 0.00 0.00 91 1021.4
20260507140744 44 182 1.7 6.1 0.00 0.00 0.00 93 1021.1
20260507140242 43 217 3.5 9.6 0.00 0.00 0.00 94 1021.4
20260507135738 43 342 3.5 7.8 0.00 0.00 0.00 96 1021.4
20260507135236 43 306 2.6 7.0 0.00 0.00 0.00 96 1021.1
20260507134732 42 260 1.7 7.0 0.00 0.00 0.00 97 1021.4
20260507134228 42 302 1.7 4.3 0.00 0.00 0.00 97 1021.4
20260507133724 42 192 1.7 9.6 0.00 0.00 0.00 97 1021.6
20260507133221 42 303 0.9 9.6 0.00 0.00 0.00 97 1021.2
20260507132719 41 166 1.7 4.3 0.00 0.00 0.00 97 1021.5
20260507132215 41 299 6.1 7.0 0.00 0.00 0.00 97 1021.5
20260507131712 41 278 1.7 4.3 0.00 0.00 0.00 97 1021.4
20260507131210 41 202 3.5 6.1 0.00 0.00 0.00 97 1021.2
20260507130706 41 310 5.2 5.2 0.00 0.00 0.00 97 1021.6
20260507130204 40 293 2.6 5.2 0.00 0.00 0.00 97 1021.5
20260507125702 40 298 6.1 7.0 0.00 0.00 0.00 97 1021.4
20260507125200 40 354 1.7 4.3 0.00 0.00 0.00 97 1021.2
20260507124656 40 330 5.2 6.1 0.00 0.00 0.00 97 1021.2
20260507124153 40 286 1.7 5.2 0.00 0.00 0.00 97 1020.9
20260507123652 40 40 0.9 4.3 0.00 0.00 0.00 97 1021.1
20260507123148 39 309 3.5 5.2 0.00 0.00 0.00 97 1021.0
20260507122644 40 316 4.3 4.3 0.00 0.00 0.00 97 1021.0
20260507122139 40 311 4.3 6.1 0.00 0.00 0.00 97 1021.0
20260507121636 39 318 4.3 6.1 0.00 0.00 0.00 96 1020.9
20260507121132 40 298 5.2 5.2 0.00 0.00 0.00 96 1020.9
20260507120628 40 324 4.3 5.2 0.00 0.00 0.00 96 1021.0
20260507120125 40 330 3.5 4.3 0.00 0.00 0.00 96 1020.8
20260507115621 40 325 1.7 5.2 0.00 0.00 0.00 96 1021.0
20260507115117 40 327 3.5 3.5 0.00 0.00 0.00 96 1020.9
20260507114613 40 327 2.6 5.2 0.00 0.00 0.00 96 1020.8
20260507114110 40 338 2.6 4.3 0.00 0.00 0.00 96 1020.8
20260507113608 40 328 3.5 5.2 0.00 0.00 0.00 95 1020.8
20260507113105 40 317 2.6 3.5 0.00 0.00 0.00 95 1020.9
20260507112603 40 318 4.3 5.2 0.00 0.00 0.00 95 1020.8
20260507112059 40 339 3.5 4.3 0.00 0.00 0.00 95 1020.7
20260507111556 40 347 3.5 4.3 0.00 0.00 0.00 94 1020.7
20260507111053 40 322 3.5 6.1 0.00 0.00 0.00 94 1020.8
20260507110549 40 318 4.3 6.1 0.00 0.00 0.00 94 1020.7
20260507110046 40 320 3.5 6.1 0.00 0.00 0.00 94 1021.0
20260507105542 40 305 5.2 7.0 0.00 0.00 0.00 93 1020.9
20260507105038 40 337 3.5 4.3 0.00 0.00 0.00 93 1020.8
20260507104536 41 311 2.6 6.1 0.00 0.00 0.00 93 1020.8
20260507104032 41 346 1.7 4.3 0.00 0.00 0.00 93 1020.8
20260507103528 40 348 1.7 3.5 0.00 0.00 0.00 92 1020.8
20260507103025 40 29 1.7 3.5 0.00 0.00 0.00 92 1020.9
20260507102522 40 19 1.7 4.3 0.00 0.00 0.00 92 1020.9
20260507102018 40 60 0.0 1.7 0.00 0.00 0.00 91 1020.9
20260507101514 40 346 0.9 1.7 0.00 0.00 0.00 91 1020.9
20260507101010 40 18 3.5 3.5 0.00 0.00 0.00 91 1021.0
20260507100508 40 9 2.6 3.5 0.00 0.00 0.00 91 1021.0
20260507100005 39 347 0.9 1.7 0.00 0.00 0.00 90 1020.9
20260507095503 40 19 3.5 3.5 0.00 0.00 0.00 90 1020.9
20260507094954 40 29 0.0 3.5 0.00 0.00 0.00 90 1021.0
20260507094450 40 16 0.9 6.1 0.00 0.00 0.00 89 1020.9
20260507093947 39 20 2.6 2.6 0.00 0.00 0.00 89 1020.8
20260507093445 40 112 0.9 1.7 0.00 0.00 0.00 88 1020.7
20260507092943 40 111 0.9 1.7 0.00 0.00 0.00 88 1020.6
20260507092439 40 44 0.0 0.0 0.00 0.00 0.00 88 1020.9
20260507091936 40 55 1.7 1.7 0.00 0.00 0.00 87 1020.8
20260507091432 40 103 0.0 0.9 0.00 0.00 0.00 86 1020.7
20260507090928 41 89 0.0 0.9 0.00 0.00 0.00 86 1020.7
20260507090425 41 38 0.0 1.7 0.00 0.00 0.00 86 1020.8
20260507085921 42 66 0.0 0.9 0.00 0.00 0.00 85 1020.5
20260507085418 42 49 1.7 1.7 0.00 0.00 0.00 84 1020.7
20260507084916 42 74 1.7 1.7 0.00 0.00 0.00 84 1020.6
20260507084412 42 93 1.7 1.7 0.00 0.00 0.00 83 1020.5
20260507083910 43 67 1.7 1.7 0.00 0.00 0.00 83 1020.5
20260507083406 43 39 2.6 3.5 0.00 0.00 0.00 83 1020.7
20260507082902 43 28 2.6 3.5 0.00 0.00 0.00 82 1020.7
20260507082358 43 39 2.6 3.5 0.00 0.00 0.00 81 1020.7
20260507081855 44 40 2.6 3.5 0.00 0.00 0.00 81 1020.8
20260507081351 44 65 2.6 3.5 0.00 0.00 0.00 80 1020.7
20260507080848 44 57 3.5 4.3 0.00 0.00 0.00 80 1020.6
20260507080344 44 70 4.3 5.2 0.00 0.00 0.00 80 1020.5
20260507075839 44 81 3.5 5.2 0.00 0.00 0.00 79 1020.5
20260507075336 45 80 0.0 3.5 0.00 0.00 0.00 79 1020.8
20260507074832 45 87 3.5 8.7 0.00 0.00 0.00 78 1020.4
20260507074330 45 136 5.2 6.1 0.00 0.00 0.00 76 1020.8
20260507073827 45 52 3.5 5.2 0.00 0.00 0.00 75 1021.1
20260507073324 45 16 5.2 7.8 0.00 0.00 0.00 74 1021.5
20260507072821 45 31 7.0 8.7 0.00 0.00 0.00 73 1021.8
20260507072318 45 8 5.2 6.1 0.00 0.00 0.00 72 1021.9
20260507071815 45 24 7.0 7.8 0.00 0.00 0.00 72 1021.5
20260507071312 46 16 7.0 9.6 0.00 0.00 0.00 71 1021.2
20260507070809 46 11 7.0 7.8 0.00 0.00 0.00 70 1021.7
20260507070306 46 17 4.3 9.6 0.00 0.00 0.00 70 1021.7
20260507065803 46 1 8.7 10.4 0.00 0.00 0.00 69 1021.9
20260507065259 46 13 7.0 8.7 0.00 0.00 0.00 68 1022.2
20260507064756 46 9 5.2 6.1 0.00 0.00 0.00 68 1022.1
20260507064255 46 30 4.3 7.0 0.00 0.00 0.00 67 1021.9
20260507063753 47 46 6.1 7.8 0.00 0.00 0.00 67 1022.0
20260507063249 47 8 6.1 8.7 0.00 0.00 0.00 67 1022.0
20260507062746 47 352 5.2 7.8 0.00 0.00 0.00 67 1021.8
20260507062243 47 48 7.0 9.6 0.00 0.00 0.00 66 1021.6
20260507061741 47 27 5.2 7.8 0.00 0.00 0.00 66 1021.7
20260507061239 47 28 5.2 7.0 0.00 0.00 0.00 66 1021.9
20260507060737 47 44 6.1 11.3 0.00 0.00 0.00 66 1021.6
20260507060233 47 50 7.8 10.4 0.00 0.00 0.00 66 1021.5
20260507055730 47 31 9.6 11.3 0.00 0.00 0.00 65 1021.1
20260507055225 47 39 7.8 12.2 0.00 0.00 0.00 65 1020.9
20260507054721 47 16 8.7 11.3 0.00 0.00 0.00 65 1020.8